West Palm Beach, FL

3:14 AM EST on December 15, 2019 (GMT -0500)
Palm Beach International

Weather History for KPBI - November, 2019

Change the Weather History Date:

Saturday, November 16, 2019

  Actual Average Record
Temperature  
Mean Temperature 66 °F 73 °F  
Max Temperature 73 °F 80 °F 88 °F (1980)
Min Temperature 59 °F 65 °F 40 °F (1940)
Degree Days  
Heating Degree Days 0 0  
Month to date heating degree days 0 0  
Since 1 July heating degree days 0 1  
Cooling Degree Days 1 8  
Month to date cooling degree days 204 145  
Year to date cooling degree days 4434 3766  
Growing Degree Days 18 (Base 50)    
Moisture  
Dew Point 56 °F    
Average Humidity 72    
Maximum Humidity 87    
Minimum Humidity 57    
Precipitation  
Precipitation 0.00 in 0.17 in 3.89 in (1994)
Month to date precipitation 3.10 2.84  
Year to date precipitation 56.49 57.04  
Snow  
Snow 0.00 in - - ()
Month to date snowfall 0.0  
Since 1 July snowfall 0.0  
Since 1 September snowfall 0.0  
Snow Depth 0.00 in    
Sea Level Pressure  
Sea Level Pressure 29.87 in    
Wind  
Wind Speed 13 mph (NW)    
Max Wind Speed 24 mph    
Max Gust Speed 31 mph    
Visibility 10 miles    
Events      
T = Trace of Precipitation, MM = Missing Value Source: NWS Daily Summary

Daily Weather History Graph

Daily Weather History Graph

Search for Another Location

Airport or City:

Astronomy

Nov. 16, 2019 Rise Set
Actual Time 6:40 AM EST 5:29 PM EST
Civil Twilight 6:15 AM EST 5:54 PM EST
Nautical Twilight 5:47 AM EST 6:22 PM EST
Astronomical Twilight 5:20 AM EST 6:49 PM EST
Moon 9:10 PM EST (11/16) 10:23 AM EST (11/16)
Length of Visible Light 11h 38m
Length of Day
10h 49m
Waning Gibbous, 82% of the Moon is Illuminated
Nov 16
Waning Gibbous
Nov 19
Last Quarter
Nov 26
New
Dec 4
First Quarter
Dec 12
Full

Hourly Weather History & Observations

Time (EST) Temp. Dew Point Humidity Pressure Visibility Wind Dir Wind Speed Gust Speed Precip Events Conditions
12:53 AM 66.9 °F 62.1 °F 84% 29.88 in 10.0 mi WNW 11.5 mph - N/A   Mostly Cloudy
1:53 AM 66.0 °F 61.0 °F 84% 29.88 in 10.0 mi WNW 9.2 mph - N/A   Scattered Clouds
2:53 AM 64.9 °F 60.1 °F 84% 29.87 in 10.0 mi WNW 11.5 mph 20.7 mph N/A   Scattered Clouds
3:53 AM 64.9 °F 59.0 °F 81% 29.86 in 10.0 mi WNW 11.5 mph - N/A   Overcast
4:53 AM 64.0 °F 57.9 °F 80% 29.86 in 10.0 mi NW 11.5 mph - N/A   Overcast
5:53 AM 64.0 °F 57.0 °F 78% 29.88 in 10.0 mi WNW 12.7 mph - N/A   Overcast
6:53 AM 63.0 °F 55.9 °F 78% 29.89 in 10.0 mi WNW 10.4 mph - N/A   Mostly Cloudy
7:53 AM 63.0 °F 55.0 °F 75% 29.92 in 10.0 mi WNW 11.5 mph - N/A   Scattered Clouds
8:53 AM 66.0 °F 55.9 °F 70% 29.92 in 10.0 mi NW 9.2 mph - N/A   Scattered Clouds
9:53 AM 68.0 °F 55.0 °F 63% 29.92 in 10.0 mi WNW 11.5 mph - N/A   Scattered Clouds
10:53 AM 70.0 °F 55.0 °F 59% 29.89 in 10.0 mi West 19.6 mph 27.6 mph N/A   Scattered Clouds
11:53 AM 70.0 °F 55.0 °F 59% 29.87 in 10.0 mi WNW 21.9 mph - N/A   Scattered Clouds
12:53 PM 69.1 °F 55.9 °F 63% 29.84 in 10.0 mi WNW 17.3 mph 26.5 mph N/A   Mostly Cloudy
1:53 PM 72.0 °F 55.9 °F 57% 29.82 in 10.0 mi WNW 16.1 mph 23.0 mph N/A   Mostly Cloudy
2:53 PM 72.0 °F 55.9 °F 57% 29.82 in 10.0 mi WNW 20.7 mph 27.6 mph N/A   Mostly Cloudy
3:53 PM 69.1 °F 55.0 °F 61% 29.82 in 10.0 mi WNW 12.7 mph - N/A   Mostly Cloudy
4:53 PM 68.0 °F 54.0 °F 61% 29.83 in 10.0 mi WNW 11.5 mph - N/A   Mostly Cloudy
5:53 PM 64.9 °F 55.0 °F 70% 29.84 in 10.0 mi NW 9.2 mph - N/A   Scattered Clouds
6:53 PM 64.0 °F 54.0 °F 70% 29.86 in 10.0 mi NW 11.5 mph - N/A   Partly Cloudy
7:53 PM 62.1 °F 53.1 °F 72% 29.88 in 10.0 mi NNW 8.1 mph - N/A   Partly Cloudy
8:53 PM 62.1 °F 53.1 °F 72% 29.89 in 10.0 mi NNW 5.8 mph - N/A   Scattered Clouds
9:53 PM 63.0 °F 53.1 °F 70% 29.90 in 10.0 mi NNW 11.5 mph - N/A   Mostly Cloudy
10:32 PM 62.1 °F 53.1 °F 72% 29.91 in 10.0 mi NW 12.7 mph - N/A   Mostly Cloudy
10:53 PM 62.1 °F 53.1 °F 72% 29.91 in 10.0 mi NNW 13.8 mph - N/A   Mostly Cloudy
11:53 PM 59.0 °F 52.0 °F 78% 29.89 in 10.0 mi NW 10.4 mph - N/A   Mostly Cloudy